Location: The Rolnick Observatory
(41.1711°N, 73.3275°W)
Time: 12:46:59
(UTC-04:00)

Daily predictions for brighter satellites

Satellite Brightness Start Highest point End
(mag) Time Altitude Azimuth Time Altitude Azimuth Time Altitude Azimuth
Meteor 1-12 Rocket 4.5 20:32:53 10° N 20:38:55 69° ENE 20:44:51 10° SSE
Cosmos 2292 Rocket 4.5 20:34:13 10° N 20:39:01 76° W 20:45:29 10° S
Cosmos 1680 Rocket 4.5 20:37:59 10° SSE 20:42:18 26° E 20:46:35 10° NE
Cosmos 1812 3.9 20:44:25 10° SSW 20:48:09 48° W 20:51:57 10° N
Cosmos 1709 Rocket 4.2 20:46:14 10° N 20:52:32 80° W 20:58:42 10° S
Cosmos 1743 3.4 20:49:48 10° N 20:53:28 38° ENE 20:57:07 10° SSE
Cosmos 1346 4.2 20:52:37 10° SSE 20:54:51 22° E 20:57:05 10° NE
Iridium 4 Rocket 3.9 20:50:12 10° N 20:55:09 71° W 21:00:33 10° S
Envisat 3.0 20:51:12 10° SSE 20:56:17 86° ENE 21:01:24 10° NNW
Spot 1 4.2 20:54:33 10° SSE 20:59:10 86° ENE 21:03:31 10° NNW
ASTRO E2 4.3 20:57:42 10° SW 21:00:39 20° S 21:03:15 12° SE
ASTEX 1 4.1 20:57:25 10° SE 21:01:55 37° ENE 21:06:24 10° N
Aureole 3 Rocket 4.0 20:56:07 10° SSE 21:02:43 50° E 21:07:28 10° NNE
Tiangong 2 2.1 21:08:04 10° SSW 21:10:48 27° SSE 21:13:19 11° E
Aureole 1 Rocket 3.2 21:09:12 10° SSE 21:12:15 29° ESE 21:14:59 10° NE
NOSS 2-2 (E) 3.5 21:09:23 10° SW 21:13:24 89° NW 21:18:04 10° NE
DNEPR-1 R/B 4.1 21:12:46 10° NNW 21:16:52 45° NE 21:20:18 16° ESE
SL-08 ROCKET BODY 4.5 21:12:32 10° N 21:18:44 87° E 21:24:55 10° S
Meteor 2-4 Rocket 3.9 21:14:41 10° S 21:20:05 52° E 21:25:41 10° NNE
USA 186 4.4 21:20:24 10° SW 21:22:44 18° W 21:25:03 10° NW
ISS -2.9 21:20:13 10° SSW 21:23:05 28° SE 21:25:57 10° ENE
Cosmos 1666 2.7 21:20:25 10° N 21:24:08 60° E 21:26:56 17° SSE
Meteor 2-13 Rocket 4.4 21:20:03 10° N 21:26:08 77° E 21:32:05 11° SSE
Cosmos 923 Rocket 4.1 21:22:16 10° SSW 21:27:37 89° WNW 21:32:57 10° NNE
OAO 2 Rocket 3.8 21:23:03 10° WSW 21:27:37 38° S 21:31:02 17° ESE
Cosmos 2184 Rocket 4.0 21:26:16 10° N 21:32:39 87° E 21:38:55 10° S
Cosmos 1536 Rocket 4.5 21:28:38 10° SSW 21:32:49 49° W 21:37:02 10° N
Cosmos 2074 Rocket 4.0 21:26:35 10° N 21:32:51 89° W 21:39:08 10° S
CZ-3A R/B 2.0 21:29:30 10° SSW 21:33:08 23° SSE 21:33:08 23° SSE
Cosmos 1437 4.4 21:32:01 10° SW 21:35:00 35° WNW 21:38:01 10° N
CZ-4B DEB 4.3 21:32:21 10° SSW 21:35:02 30° W 21:37:44 10° NNW
USA 245 3.4 21:38:45 27° E 21:39:15 29° ENE 21:41:28 10° NNE
Cosmos 1606 Rocket 4.5 21:35:58 10° NNE 21:39:51 32° ENE 21:41:41 22° ESE
Intercosmos 24 4.1 21:37:29 10° N 21:41:26 48° ENE 21:43:05 26° SE
YAOGAN 11 4.2 21:40:58 22° SSE 21:43:33 59° ENE 21:47:48 10° N
YAOGAN 6 3.5 21:42:06 12° S 21:45:08 44° W 21:48:30 10° NNW
Cosmos 1656 Rocket 4.0 21:40:03 10° NNW 21:45:24 59° WSW 21:49:49 15° S
ERS-1 Rocket 3.1 21:41:29 14° S 21:45:46 76° WSW 21:50:49 10° NNW
USA 267 4.5 21:43:08 10° E 21:46:46 18° ESE 21:46:46 18° ESE
MetOp-A 4.1 21:45:09 18° SSE 21:49:11 86° ENE 21:54:35 10° NNW
Meteor 1-23 Rocket 4.1 21:43:45 10° S 21:49:15 72° E 21:54:50 10° NNE
MOS 1-B Rocket 3.9 21:46:03 18° SSE 21:50:21 83° ENE 21:56:41 10° NNW
Cosmos 1726 Rocket 4.3 21:46:52 10° N 21:50:51 34° ENE 21:52:22 26° ESE
Cosmos 405 Rocket 4.0 21:48:31 10° SSW 21:52:02 39° WNW 21:55:38 10° N
GENESIS II 4.1 21:49:22 10° NNW 21:53:20 84° ENE 21:55:01 33° SE
Cosmos 1515 4.5 21:53:03 30° ESE 21:53:46 32° E 21:57:11 10° NNE
H-2A R/B 2.5 21:52:51 25° SE 21:55:18 44° ENE 22:00:03 10° N
Cosmos 1980 Rocket 4.5 21:54:39 10° NNE 21:56:42 12° NE 21:58:43 10° ENE
Cosmos 2058 Rocket 4.1 21:53:20 10° NNE 21:57:15 30° ENE 21:58:34 26° ESE
Meteor 1-15 Rocket 4.2 21:52:31 10° N 21:58:08 71° E 22:01:25 25° SSE
Cosmos 2112 Rocket 4.3 21:55:15 10° SSW 22:00:27 70° WNW 22:05:40 10° NNE
Cosmos 1943 Rocket 4.4 21:57:17 10° WNW 22:01:02 18° W 22:04:44 10° SW
Cosmos 192 4.4 21:56:12 10° SSW 22:01:06 82° WNW 22:06:02 10° NNE
Cosmos 1025 Rocket 2.9 21:58:34 18° S 22:01:44 87° W 22:06:01 10° N
CENTAUR R/B 3.6 21:55:21 10° NW 22:03:07 57° WSW 22:09:18 19° S
Cosmos 1441 Rocket 3.8 22:01:18 11° SSW 22:04:44 54° WNW 22:08:24 10° N
Nadezhda 1 Rocket 4.4 22:01:34 10° SSW 22:07:51 66° W 22:14:15 10° N
Cosmos 1624 Rocket 4.1 22:03:19 10° NNW 22:08:34 64° ENE 22:10:57 32° SE
PSLV R/B 2.9 22:07:16 10° W 22:10:24 79° S 22:10:40 70° SE
Cosmos 2154 Rocket 4.1 22:09:53 10° N 22:16:16 80° W 22:20:26 23° S
SL-08 RB Rocket 3.6 22:14:43 34° S 22:16:39 84° WSW 22:21:09 10° NNW
ARGOS 3.3 22:13:33 25° S 22:16:47 73° WSW 22:22:13 10° NNW
COSMOS 2406 4.4 22:11:45 10° SW 22:17:12 43° WNW 22:22:38 10° NNE
Nimbus 7 Rocket 4.4 22:11:41 10° NNE 22:17:47 81° ESE 22:22:26 18° SSW
SL-27 R/B 3.9 22:15:16 10° SW 22:18:43 39° WNW 22:22:11 10° N
SL-8 Rocket 4.3 22:14:24 10° N 22:20:28 50° ENE 22:23:02 32° SE
Landsat 7 3.9 22:21:40 40° SE 22:23:14 62° ENE 22:27:57 10° N
SPOT 5 3.1 22:23:04 29° SSW 22:25:00 54° W 22:29:16 10° NNW
H-2A R/B 2.7 22:24:49 37° ESE 22:25:52 44° ENE 22:30:11 10° N
Cosmos 2278 4.0 22:20:57 10° NNW 22:26:35 56° ENE 22:28:45 35° ESE
Cosmos 2056 Rocket 3.4 22:22:07 10° NNW 22:27:19 86° ENE 22:29:09 41° SSE
Cosmos 2082 Rocket 2.7 22:28:02 36° SE 22:28:55 38° ESE 22:34:06 10° NE
Cosmos 1626 Rocket 4.3 22:37:18 35° E 22:37:18 35° E 22:41:02 10° NNE
Iridium 82 4.4 22:33:44 10° N 22:37:18 85° E 22:37:24 82° SE
Terra 1.9 22:37:12 47° SE 22:38:18 62° ENE 22:43:00 10° N
CZ-4B R/B 4.2 22:34:20 10° NNE 22:38:58 35° E 22:39:09 35° ESE
Cosmos 839 Rocket 4.3 22:34:49 10° NNW 22:41:24 85° ENE 22:44:54 36° SE
Cosmos 2341 Rocket 4.3 22:38:03 10° NNW 22:44:19 67° W 22:47:39 29° SSW
Cosmos 967 Rocket 4.4 22:38:43 10° SSW 22:44:59 89° WNW 22:51:19 10° NNE
Cosmos 2369 3.7 22:39:27 10° NNW 22:45:14 78° ENE 22:46:58 46° SE
SPOT 1/Viking Rocket 4.0 22:44:17 32° SSW 22:46:25 53° W 22:51:29 10° NNW
COSMOS 2487 2.8 22:47:21 58° NE 22:47:21 58° NE 22:50:20 10° NNE
Tiangong 2 2.9 22:44:11 10° WSW 22:45:36 24° W 22:45:36 24° W
Cosmos 1437 Rocket 4.0 22:45:01 10° NNW 22:48:31 34° W 22:49:25 30° WSW
Cosmos 1959 Rocket 4.5 22:45:00 10° N 22:51:23 73° E 22:53:30 44° SSE
Cosmos 1697 Rocket 3.2 22:49:31 10° NNW 22:54:56 47° ENE 22:56:25 38° ESE
IGS 5A 3.3 22:56:43 80° S 22:56:57 89° W 23:01:08 10° NNW
ISS -2.2 22:56:25 10° W 22:59:30 36° NNW 23:02:35 10° NE
Cosmos 1452 Rocket 3.5 22:54:20 10° NNW 22:59:36 69° ENE 23:00:34 56° SE
Cosmos 2218 Rocket 3.9 22:54:33 10° N 23:00:44 86° E 23:02:38 48° SSE
Cosmos 1271 Rocket 4.1 23:02:47 10° N 23:05:37 29° NE 23:05:37 29° NE
Cosmos 2228 3.4 23:02:14 10° NNW 23:06:25 53° W 23:06:54 50° WSW
Cosmos 1602 Rocket 3.4 23:10:37 81° ENE 23:10:37 81° ENE 23:14:51 10° N
deb Chang Zheng 4 3.6 23:06:45 10° N 23:11:03 73° WNW 23:11:26 67° WSW
Cosmos 921 Rocket 3.7 23:08:13 10° NNW 23:12:30 44° W 23:12:53 43° WSW
Cosmos 1833 Rocket 2.5 23:11:23 54° S 23:12:42 82° ESE 23:18:21 10° NNE
Cosmos 1656 3.5 23:09:57 10° NNW 23:15:26 85° WSW 23:16:17 65° S
Cosmos 1066 Rocket 4.4 23:15:05 41° SW 23:16:54 65° WNW 23:22:29 10° N
Lacrosse 5 rocket 4.5 23:17:03 10° NNW 23:19:17 13° NNE 23:21:31 10° NE
Meteor 1-21 4.2 23:19:44 61° SE 23:20:23 66° E 23:26:03 10° NNE
SL-19 R/B 4.4 23:15:47 10° N 23:21:08 64° WNW 23:22:49 41° SW
Cosmos 468 4.3 23:24:10 73° S 23:24:42 86° ESE 23:30:01 10° NNE
CZ-4 R/B 4.1 23:20:35 10° N 23:25:35 71° WNW 23:26:31 56° SW
Cosmos 1766 3.8 23:22:01 10° N 23:25:11 57° N 23:25:11 57° N
Nadezhda 3 Rocket 4.0 23:29:12 55° SE 23:30:14 63° E 23:36:31 10° NNE
USA 267 3.1 23:24:29 10° NE 23:31:03 76° SE 23:34:02 35° SW
Meteor 1-4 Rocket 3.9 23:27:42 10° NNW 23:30:20 35° WNW 23:30:20 35° WNW
Meteor 2-14 Rocket 4.4 23:27:53 10° N 23:33:58 78° W 23:35:08 59° SSW
H-2A R/B 3.8 23:33:29 18° WSW 23:34:57 20° W 23:38:36 10° NW
Cosmos 1980 Rocket 2.2 23:36:10 10° NNW 23:41:50 67° ENE 23:42:26 62° E
SME Rocket 3.7 23:46:35 66° ESE 23:46:59 69° ENE 23:51:24 10° N
SeaSat 1 2.9 23:46:39 48° ENE 23:47:02 49° ENE 23:51:49 10° NNW
Cosmos 1821 Rocket 4.1 23:43:13 10° N 23:49:25 60° E 23:50:18 54° ESE
Cosmos 2322 Rocket 3.5 23:45:08 10° N 23:50:07 30° NE 23:51:42 26° E
